Theta_e
314 317 318 317 315 314 313 313 313 313 313 312 312 313 313 312 311 311 311 311 311 310 311 312 311 310 310 310 310 310 311 311 311 311 311 310 310 310 311 311 310 310 311 310 309 308 308 308 307 306 306 306 305 305 305 305 305 304 304 303 302 301 300 299 299 299 299 298 298 297 297 297 297 298 298 298 298 298 298 297 297 296 294 294 295 295
312 315 317 317 314 314 313 312 311 311 312 312 313 313 312 312 311 310 311 311 310 310 311 311 311 310 310 311 310 311 311 311 311 311 312 311 311 312 312 312 311 311 311 311 310 309 308 308 308 306 306 305 305 305 305 304 304 305 304 303 302 301 299 300 300 299 299 299 299 298 298 298 298 298 298 298 298 298 298 297 297 297 295 293 294 294
314 315 314 314 313 313 312 311 311 312 312 313 313 313 313 312 311 311 311 312 310 311 314 314 312 311 311 311 311 311 311 311 311 312 312 312 312 312 312 312 312 311 312 311 311 310 307 306 307 306 305 305 305 305 305 304 304 304 303 302 301 300 300 300 299 299 299 299 299 299 298 298 298 298 298 298 298 298 298 298 298 297 296 294 293 293
317 319 315 312 312 313 312 312 313 313 312 313 314 313 313 312 312 313 313 314 311 311 315 314 311 310 310 310 310 310 310 310 311 311 312 312 312 312 312 312 312 311 312 311 311 311 308 307 305 303 304 304 304 304 304 304 303 303 303 302 301 300 300 299 299 299 299 298 298 298 298 297 297 297 297 297 297 297 297 298 298 297 296 295 292 292
315 320 318 312 311 312 312 313 313 313 313 313 314 313 313 313 312 312 313 315 312 312 315 312 311 312 312 313 312 312 310 310 310 310 311 311 311 312 312 312 312 312 311 311 312 311 311 311 306 301 303 303 302 303 303 303 303 303 302 302 301 300 299 299 299 299 298 298 297 297 297 297 296 296 295 295 295 296 296 297 297 297 296 295 293 291
312 316 316 314 314 313 312 313 314 315 314 312 314 314 312 312 312 312 312 312 313 317 316 313 314 315 316 316 317 318 315 312 311 310 310 311 310 311 311 311 311 311 311 311 311 310 311 313 307 300 301 302 301 303 304 304 304 303 302 301 300 299 299 299 299 298 298 298 297 297 296 296 295 295 295 295 295 296 297 297 296 296 296 295 294 292
313 314 314 315 317 316 313 313 315 315 313 313 317 318 314 311 313 314 313 313 318 320 316 314 316 316 315 316 319 320 318 315 313 312 311 310 310 311 312 312 312 311 312 311 311 311 310 310 311 305 300 300 301 304 304 303 303 302 301 300 299 299 299 298 298 298 298 297 297 297 297 297 296 295 295 296 297 297 297 296 296 296 295 295 295 293
313 313 313 313 313 315 315 315 315 313 313 314 317 320 319 315 314 315 313 314 318 318 315 315 316 316 316 315 317 318 317 316 314 312 311 311 312 312 312 312 312 312 313 313 313 312 310 310 312 306 301 301 304 304 304 302 302 301 301 300 299 299 298 298 298 298 298 298 297 297 297 297 297 297 297 297 296 296 295 295 295 295 295 295 294 293
313 313 315 315 312 315 316 314 315 313 313 316 316 317 318 316 315 316 316 317 318 317 316 316 315 318 318 315 316 316 315 318 315 314 313 312 312 312 311 312 312 312 312 312 312 311 311 311 306 302 301 304 304 303 302 301 302 301 300 300 299 298 298 298 298 298 298 298 298 297 297 297 297 297 297 296 295 295 295 294 294 294 294 294 294 293
312 312 314 316 315 315 313 313 317 316 313 316 316 316 321 324 322 319 318 318 319 319 318 317 316 318 318 316 318 315 314 319 319 317 314 311 311 311 310 311 311 312 311 311 311 311 312 307 301 302 302 302 302 301 301 301 301 300 300 299 298 298 298 297 298 298 297 298 297 297 297 297 297 296 296 295 295 294 294 294 294 294 294 294 294 293
310 310 311 314 314 313 313 313 314 315 314 313 314 316 323 326 324 322 322 318 317 319 318 319 317 316 317 319 320 318 317 318 318 317 315 314 315 314 312 312 311 311 311 312 311 313 313 303 298 300 300 300 300 300 300 300 300 300 299 298 298 297 297 297 297 297 297 297 297 297 297 297 297 296 295 295 294 294 293 293 293 293 294 294 294 293
309 308 312 316 315 313 312 312 312 313 313 312 315 318 320 322 323 326 325 318 317 319 318 319 317 315 318 317 316 319 318 316 316 317 315 315 316 316 316 314 312 312 311 312 311 313 317 310 302 300 298 298 299 298 299 300 299 299 298 298 297 297 297 297 297 297 297 297 297 297 297 297 297 296 296 295 294 294 293 293 293 293 293 293 293 293
313 313 313 312 313 313 312 314 316 314 312 312 316 317 316 319 320 322 322 319 319 321 317 315 314 314 315 315 315 317 316 315 313 312 312 314 314 313 313 312 311 311 311 312 312 314 320 317 309 304 298 295 296 297 297 298 298 298 297 297 297 296 296 296 296 297 297 296 296 297 297 297 296 296 296 295 295 294 294 294 293 293 292 292 292 292
319 317 312 309 312 313 312 314 316 317 316 314 317 319 318 318 317 318 322 320 319 320 316 312 314 316 315 316 319 315 313 315 314 312 313 313 313 312 312 311 310 310 309 310 313 315 317 313 307 302 297 294 295 296 296 297 297 297 297 296 296 296 296 296 296 296 296 296 296 296 296 296 296 296 295 295 295 295 294 294 294 294 293 293 293 293
317 318 316 314 315 314 311 312 315 321 321 314 317 321 319 319 320 319 321 320 318 320 316 311 316 322 318 317 320 316 315 318 315 314 314 315 317 316 315 313 312 311 310 309 312 312 308 306 303 298 295 294 295 295 295 296 296 296 296 296 296 296 295 296 296 296 296 296 296 296 296 296 296 296 295 295 295 295 295 294 294 294 294 293 293 293
316 320 320 315 313 313 313 312 311 317 321 315 317 321 317 317 320 318 319 320 317 318 316 313 318 323 318 314 316 315 315 316 316 316 316 316 316 315 315 316 315 315 313 311 313 313 308 304 301 295 294 295 295 295 295 295 296 296 296 296 296 296 296 295 296 296 296 296 296 296 296 296 296 295 295 295 295 295 295 295 294 294 294 294 293 293
316 320 320 313 312 314 315 314 311 313 319 317 316 317 316 317 318 316 318 319 315 315 316 315 318 318 314 315 317 318 317 315 315 315 312 311 311 312 316 318 317 318 319 317 316 314 310 307 301 293 293 295 294 294 295 295 296 296 296 296 296 296 296 295 295 295 295 295 296 296 295 296 295 295 295 295 295 295 294 294 294 294 294 293 293 292
317 317 317 313 314 314 312 312 312 313 316 316 316 315 314 317 319 317 317 317 316 317 316 315 317 315 314 319 321 320 319 317 317 315 312 310 312 315 317 317 315 318 322 324 324 319 312 311 306 294 292 295 294 294 295 295 296 296 296 297 296 296 296 296 295 295 295 296 295 295 295 295 295 295 296 295 295 295 294 294 294 293 293 293 292 292
318 316 317 315 314 314 312 312 314 314 313 312 313 314 313 316 317 316 318 318 316 317 318 317 316 314 314 317 317 315 315 316 317 317 315 312 313 315 316 317 318 321 325 328 331 330 325 325 315 296 292 295 295 295 295 295 295 295 296 296 296 297 296 296 296 295 295 296 295 296 295 295 295 295 295 295 294 294 294 294 293 293 293 292 292 291
315 315 318 317 315 315 313 314 316 316 314 309 310 313 313 314 315 315 319 320 318 317 318 318 317 316 316 315 314 314 314 315 316 317 317 314 313 313 314 318 322 324 328 329 331 333 333 333 314 294 292 295 295 296 296 295 295 295 295 296 296 296 296 296 295 295 295 295 295 295 295 295 295 295 295 294 294 293 293 293 293 292 292 292 291 291
315 316 317 317 319 317 315 316 315 316 317 314 313 314 313 314 315 315 315 317 317 316 317 318 317 318 318 316 315 314 314 317 318 317 316 314 313 312 313 318 322 325 327 327 329 330 333 334 312 293 293 296 294 295 296 295 295 295 295 295 295 295 295 295 295 295 295 295 295 295 295 295 295 295 294 294 293 293 293 293 293 292 292 291 291 291
319 320 318 317 319 317 316 317 317 318 320 319 317 316 314 314 315 316 315 316 316 315 316 318 317 319 320 317 315 313 314 317 318 316 314 314 314 313 314 317 319 322 323 322 325 326 328 334 316 296 294 295 294 295 294 294 295 294 295 295 294 295 295 295 296 296 296 295 295 295 295 295 295 294 294 293 293 293 293 293 292 292 291 291 291 291
319 321 320 318 318 317 316 316 316 316 317 316 315 315 315 314 313 315 316 317 316 315 315 316 316 319 321 317 314 314 314 315 316 315 313 312 313 313 313 314 315 318 319 319 320 319 318 319 307 296 296 296 294 295 294 294 294 294 294 295 294 295 295 295 296 296 296 295 295 295 294 294 294 294 293 293 293 293 293 292 292 292 291 290 290 290
318 319 318 318 319 319 318 316 315 314 314 315 315 314 314 314 313 315 315 315 316 316 316 317 317 319 321 318 316 315 314 313 313 313 312 312 312 313 313 313 313 314 315 315 314 311 311 310 304 302 304 298 294 296 295 294 294 293 294 294 294 295 295 295 296 295 295 294 294 295 294 293 293 293 293 292 292 293 292 292 292 291 291 290 290 290
318 318 319 319 320 321 319 318 318 316 315 316 316 314 314 313 313 314 314 315 316 315 316 317 317 318 320 319 316 315 314 313 312 312 312 312 313 313 313 312 311 310 308 307 306 304 304 305 304 306 305 298 296 298 298 296 295 294 294 295 295 296 296 296 295 294 294 294 294 294 293 293 293 292 292 292 292 292 292 292 291 291 290 290 290 290
316 317 319 319 319 320 319 318 319 318 318 317 316 316 315 314 314 314 315 316 316 317 316 317 317 317 317 316 315 314 313 312 312 312 311 312 312 311 309 308 306 304 302 301 301 300 300 300 300 301 300 298 299 299 298 298 296 295 295 296 297 298 297 296 295 294 294 294 293 293 293 293 292 292 293 292 292 292 292 291 291 290 290 290 289 289
313 315 317 317 318 318 317 317 317 318 318 318 317 317 316 316 315 314 315 316 316 317 316 316 317 317 317 316 314 313 313 312 312 311 310 309 309 306 303 302 301 300 300 299 299 299 299 299 299 299 298 298 298 298 299 299 298 297 297 296 297 297 297 296 295 294 294 294 293 293 293 293 293 293 293 293 292 292 291 291 290 290 289 289 289 288
313 314 315 315 315 316 315 315 316 315 316 316 316 316 316 316 316 315 314 314 315 317 317 316 316 316 316 316 314 312 311 311 309 308 305 302 301 300 299 299 299 298 298 298 298 298 298 298 298 298 297 297 297 298 298 298 299 299 299 298 298 297 296 296 295 294 294 294 293 293 293 293 293 293 293 292 292 291 291 290 290 289 289 289 288 288
313 313 314 314 314 314 314 314 314 314 314 314 315 315 315 315 316 315 315 315 315 316 316 315 314 315 314 312 310 306 304 304 303 300 298 297 297 297 297 297 296 296 297 297 297 297 297 297 297 297 297 296 296 297 297 297 298 298 298 299 299 298 298 297 295 294 294 293 293 293 293 293 293 293 292 292 291 291 290 290 290 289 289 288 288 288
311 312 312 312 312 312 313 313 314 314 314 314 314 314 314 314 315 315 315 315 315 315 315 313 314 315 310 303 300 299 297 299 299 297 296 296 295 295 295 295 295 295 295 295 295 295 296 296 296 297 297 296 296 296 296 296 297 296 297 297 297 298 298 298 296 295 294 293 293 294 294 293 293 292 291 291 291 290 290 290 289 288 288 288 287 287
311 311 310 310 310 310 311 311 312 313 314 313 313 314 314 314 315 314 314 314 314 315 314 313 315 312 303 297 297 296 294 295 297 296 294 294 295 295 295 295 294 294 294 295 295 295 295 295 296 296 296 296 296 296 296 296 296 296 296 296 296 296 297 297 297 296 294 294 295 295 294 293 292 292 291 291 290 290 289 289 288 288 287 287 287 286
307 307 307 308 309 309 309 309 310 311 312 311 311 311 312 312 312 313 314 314 313 313 312 311 310 303 296 294 296 295 292 293 295 295 293 293 294 294 294 294 294 294 294 293 294 294 294 295 295 295 295 295 295 295 295 295 295 295 295 295 295 295 295 296 296 296 295 295 295 294 294 293 292 291 291 290 290 289 289 288 288 287 287 286 286 286
305 305 306 306 307 307 307 307 308 308 308 308 307 307 309 310 310 312 310 305 303 305 306 304 300 296 295 294 294 294 293 292 293 294 293 292 293 293 294 294 293 293 293 293 293 293 294 294 294 294 295 295 295 295 295 295 294 294 293 293 293 294 294 295 295 295 295 295 294 293 293 293 292 291 291 290 289 289 288 287 287 286 286 286 285 285
303 304 304 305 305 305 305 305 305 304 304 305 303 301 302 303 302 302 300 296 296 299 299 297 295 294 294 293 293 294 293 291 293 294 293 292 292 292 293 293 292 292 292 292 292 292 293 293 293 293 294 294 294 294 294 294 294 293 292 292 293 293 293 293 294 294 294 294 293 293 292 292 291 291 290 289 289 288 287 287 286 286 285 285 284 284
301 302 302 302 303 303 302 303 302 301 302 301 297 295 297 297 296 295 294 293 294 296 295 294 294 293 292 292 293 293 292 291 292 294 293 292 291 291 292 293 292 291 291 292 292 292 292 293 292 293 293 294 294 294 293 294 294 293 292 292 293 293 292 292 292 292 292 292 292 292 292 291 291 290 289 288 288 287 287 286 285 285 285 284 284 284
300 300 300 301 301 301 301 302 301 300 301 300 296 295 295 295 294 295 295 294 293 294 294 293 293 292 292 292 292 291 291 290 292 294 293 291 291 291 292 292 292 291 291 291 291 291 292 292 292 292 293 293 293 293 293 293 293 292 292 292 292 293 292 291 291 291 291 291 291 291 291 290 290 289 288 287 287 286 286 285 285 284 284 284 283 283
300 300 301 301 301 302 302 302 302 303 304 302 297 295 294 294 294 295 296 295 293 293 293 292 292 292 292 292 291 291 291 290 291 293 293 291 291 292 292 292 291 291 290 291 291 291 291 292 292 292 292 293 292 292 292 293 293 292 291 292 292 292 291 291 291 291 290 290 290 290 290 289 289 288 287 286 286 285 285 284 284 284 283 283 282 282
300 301 301 300 301 302 302 301 302 304 305 300 294 294 295 295 294 294 295 295 293 293 293 292 291 292 291 291 291 291 290 289 289 291 291 290 291 291 291 291 291 290 290 290 290 291 291 291 292 292 292 291 291 292 292 292 292 292 291 291 292 291 290 290 290 290 289 289 289 289 289 289 288 287 287 286 285 284 284 284 283 283 283 282 282 282
298 299 299 298 298 298 298 298 299 301 302 296 291 293 294 293 292 293 296 297 293 292 293 292 290 291 291 291 291 290 290 289 289 289 289 290 290 290 290 290 289 289 289 289 290 290 291 291 290 290 290 290 290 291 291 291 292 291 291 291 291 290 290 290 289 289 289 289 289 288 288 288 287 287 286 285 284 284 284 283 283 282 282 282 282 281
297 297 297 296 296 296 296 296 296 298 299 295 291 292 292 291 292 294 297 297 293 291 293 292 290 291 291 291 291 290 289 289 289 289 289 290 289 290 289 288 288 288 288 289 289 290 289 289 289 289 289 289 289 289 290 290 291 291 290 290 290 290 290 290 289 289 289 289 289 288 288 287 287 286 286 285 284 283 283 283 282 282 281 281 281 281
296 297 297 296 296 296 296 296 294 296 298 294 290 291 291 291 293 294 295 294 291 290 293 292 291 291 291 291 291 290 290 290 290 289 289 289 288 288 288 287 287 287 287 288 288 288 288 288 288 288 288 288 288 288 289 289 289 289 289 289 290 290 290 290 289 289 289 289 288 288 287 287 286 285 285 284 283 283 282 282 282 281 281 280 280 280
295 295 295 296 296 295 295 295 293 294 295 292 289 291 291 291 292 293 293 293 291 292 293 292 291 291 290 290 290 290 289 289 289 288 288 288 287 287 286 286 286 286 286 286 286 286 286 286 286 286 286 285 285 286 286 287 286 286 288 288 289 289 290 290 289 289 289 288 288 287 287 286 285 284 284 283 283 282 281 281 281 280 280 279 279 279
294 293 293 294 294 292 291 291 291 291 292 291 290 290 291 291 291 291 291 292 293 294 293 291 291 291 290 289 289 289 288 288 287 287 287 287 286 286 285 285 285 284 285 285 285 285 285 285 284 284 283 283 283 283 283 283 283 284 286 287 287 288 288 289 289 289 288 288 288 287 286 286 285 284 283 283 282 282 281 280 279 279 279 279 278 277
292 291 290 290 291 290 289 290 291 291 291 291 290 289 290 290 290 290 291 291 292 293 292 291 290 289 289 288 288 287 287 286 286 286 286 285 285 284 283 283 283 283 283 283 283 283 283 283 282 281 281 281 281 281 280 281 281 282 283 284 284 285 286 288 288 288 288 288 287 287 286 285 284 283 283 282 282 281 280 279 278 278 278 277 277 276
291 291 290 290 292 292 291 291 292 291 290 289 289 289 289 289 289 291 291 291 292 292 291 290 289 288 287 287 287 286 286 285 285 285 284 283 283 282 282 281 281 281 281 281 282 282 281 281 280 280 279 279 279 278 278 279 280 280 280 280 280 282 285 287 287 287 287 287 287 286 285 284 283 283 283 282 281 280 279 278 277 277 276 276 276 276
290 290 290 290 291 290 290 290 290 289 289 289 289 289 289 289 290 291 292 292 291 290 289 288 288 287 286 286 285 285 285 284 284 283 282 282 281 281 280 280 279 279 279 279 280 280 279 278 278 278 278 277 277 277 277 278 278 278 278 277 278 281 284 285 284 284 285 285 286 285 284 283 282 282 281 281 281 280 279 278 277 276 276 275 275 275
290 289 288 289 289 289 289 289 289 289 289 289 288 288 288 288 289 290 291 290 289 288 287 287 287 286 285 285 284 283 283 282 282 281 280 280 280 279 279 278 278 278 277 278 278 278 277 276 276 276 276 276 275 275 276 276 275 275 275 275 277 280 281 280 280 281 283 284 284 284 283 282 281 281 280 279 279 279 278 277 277 276 275 275 275 275
289 289 289 289 288 288 288 288 288 289 288 288 287 287 287 287 288 289 289 289 288 286 285 285 285 284 283 283 282 281 280 280 279 279 279 278 278 278 277 277 276 276 276 276 276 276 275 275 274 274 274 274 274 274 274 274 273 273 273 274 276 277 277 276 277 278 280 282 283 283 282 281 281 280 279 278 278 278 277 276 276 276 275 275 275 275
289 289 290 289 289 288 288 288 288 288 287 288 288 287 287 287 287 287 288 286 285 285 284 283 283 282 281 280 280 279 278 278 277 277 277 277 277 276 276 275 275 275 275 275 275 274 274 273 273 273 272 272 272 272 272 272 271 272 272 273 274 274 273 274 274 275 277 279 281 282 281 280 280 279 278 277 277 277 277 277 277 276 276 276 276 276
288 288 289 289 288 288 288 288 288 288 287 288 287 287 287 287 287 287 286 285 284 284 283 282 281 279 279 278 277 277 277 276 276 276 276 275 275 275 274 274 273 273 273 273 273 273 272 272 272 271 271 271 271 270 270 270 270 271 271 271 271 270 271 271 273 274 275 278 280 281 280 279 278 278 277 277 276 276 276 277 277 277 277 276 276 276
289 288 288 288 288 288 288 288 288 288 287 287 288 288 287 285 285 286 285 284 283 281 280 279 279 278 277 276 276 275 275 275 275 275 274 274 273 273 273 272 272 272 272 272 271 271 271 270 270 270 269 269 269 268 268 268 269 269 269 268 268 268 269 270 272 273 274 276 278 280 280 279 278 277 277 276 276 276 276 275 275 276 276 276 276 276
Wind_Speed
3 4 4 6 10 12 13 13 16 16 10 7 4 6 8 8 10 10 11 12 6 6 10 12 18 18 15 14 14 15 13 13 18 18 15 14 14 15 15 18 17 17 18 21 25 23 23 27 28 27 29 30 32 34 35 36 39 41 41 42 43 43 42 43 43 43 43 42 39 38 39 41 41 42 42 42 42 41 41 40 39 39 39 39 38 37
2 6 8 11 14 13 13 13 13 10 6 6 6 7 8 8 13 11 12 15 5 4 9 10 17 20 16 15 12 12 13 14 18 20 20 17 16 15 16 20 19 16 16 17 21 21 18 21 22 22 25 27 30 34 36 38 40 42 42 43 43 42 43 46 47 47 47 47 46 44 45 46 44 45 45 45 45 44 42 41 40 39 39 39 39 38
2 6 10 13 12 9 8 5 5 6 7 7 5 6 8 6 9 11 12 14 6 4 8 9 16 18 14 16 13 12 15 15 16 19 21 19 16 16 17 19 19 17 17 16 18 18 13 15 20 21 24 29 32 34 36 38 39 40 41 42 42 43 45 48 48 48 48 47 46 43 42 43 41 42 44 44 43 43 41 40 40 39 39 39 39 38
5 6 12 14 10 7 7 4 4 5 5 6 6 6 8 4 6 9 7 8 5 4 7 9 15 14 11 15 13 14 18 15 14 18 20 18 17 20 20 17 16 17 18 19 19 17 10 11 16 19 23 27 29 30 33 36 38 39 42 44 44 44 46 47 47 47 45 41 39 36 33 35 34 34 36 36 36 39 39 39 40 40 40 40 39 38
9 6 7 9 8 8 9 7 6 5 6 9 9 7 10 10 11 12 6 5 6 5 7 10 15 12 9 12 10 9 12 12 13 16 17 18 20 20 17 14 15 16 19 19 18 19 12 8 12 17 21 24 27 30 34 37 40 41 43 44 44 44 44 45 45 44 40 37 36 32 27 27 26 25 28 30 31 34 38 40 42 42 41 40 39 38
10 6 3 5 7 8 9 8 6 7 9 10 8 11 16 17 13 13 9 7 6 5 5 3 8 10 4 8 8 6 6 9 9 12 17 20 19 14 11 13 16 16 16 15 16 19 15 7 8 13 18 21 25 30 35 37 40 40 40 41 41 41 42 43 43 43 41 40 40 37 33 30 28 25 28 34 36 38 42 43 43 42 41 40 39 38
6 5 5 7 8 7 6 6 7 10 8 9 6 12 16 14 11 12 9 4 2 5 4 3 1 10 4 5 7 7 8 10 10 12 17 17 13 11 11 14 14 13 12 11 13 17 15 8 7 10 16 21 26 32 34 34 36 37 37 38 40 41 41 42 43 44 43 42 42 42 41 39 37 34 35 40 42 43 44 43 42 42 41 41 40 39
4 3 5 6 4 5 5 7 8 11 7 7 5 9 11 9 9 8 5 4 4 4 4 2 4 8 11 4 8 10 10 12 13 14 14 13 13 15 15 14 12 12 11 10 12 16 14 7 7 10 16 24 29 31 30 30 32 34 35 37 39 40 40 41 43 45 45 44 44 43 41 39 40 39 38 40 40 40 41 40 40 40 41 41 40 39
4 3 5 5 4 5 7 7 7 11 7 6 2 5 6 6 5 4 4 5 1 4 5 4 5 3 12 8 4 5 7 10 13 13 13 13 14 15 14 12 13 12 12 12 12 15 13 6 8 14 19 24 28 27 26 28 31 32 33 35 37 38 39 41 44 46 47 46 45 44 42 39 38 37 34 34 35 35 36 38 38 38 39 40 40 39
1 3 6 8 5 6 8 6 7 12 9 4 4 4 3 3 2 3 3 3 2 5 6 5 5 2 11 9 1 1 3 7 10 9 10 12 12 13 12 12 13 11 11 11 9 10 10 8 11 15 18 20 21 22 23 25 28 30 32 34 37 39 39 41 44 46 47 45 44 44 42 39 36 33 29 28 30 31 33 35 36 37 38 39 39 40
4 1 3 5 5 6 5 2 4 9 6 1 2 2 5 4 4 3 0 2 2 7 6 9 11 6 7 6 3 3 4 6 7 5 7 9 10 13 12 11 12 10 10 10 8 8 8 9 11 12 13 14 15 18 21 24 27 30 33 35 37 38 38 40 43 45 46 46 45 45 44 41 38 35 32 30 31 31 32 34 35 36 37 38 39 40
4 2 2 4 3 4 4 1 1 1 2 0 1 2 4 5 4 5 4 3 2 9 6 10 13 8 7 7 1 4 7 5 6 5 8 11 11 12 11 10 10 8 7 8 9 9 8 8 8 7 9 11 12 17 21 24 27 30 32 34 35 35 37 39 41 44 46 45 45 44 43 42 40 39 38 37 36 36 36 36 36 36 37 38 39 40
3 5 5 3 1 5 5 2 3 4 2 3 2 1 2 4 4 3 3 1 4 8 5 7 8 5 11 9 3 8 13 11 9 8 8 12 12 11 11 11 10 8 7 7 8 8 7 7 6 5 6 8 11 15 18 22 25 28 30 32 34 34 36 38 40 42 44 44 43 42 41 41 39 39 40 39 38 39 39 39 38 39 39 40 41 42
4 4 1 1 3 5 8 5 3 2 3 5 5 4 3 1 3 4 3 2 5 7 3 3 5 4 10 8 5 11 14 12 8 6 8 9 9 10 11 11 11 11 9 8 8 8 6 7 6 5 6 6 8 11 14 18 22 25 27 30 32 32 34 37 39 40 41 42 42 41 40 40 39 38 39 38 38 39 39 40 40 42 42 43 44 45
3 6 3 5 3 4 9 9 7 4 4 6 6 5 4 4 4 5 4 5 8 6 3 1 4 5 6 5 6 9 8 8 6 6 7 6 7 9 9 9 9 10 9 7 7 7 6 6 6 6 6 7 8 10 13 17 21 23 25 28 30 31 33 36 38 39 41 41 40 40 40 39 39 39 39 39 40 40 40 41 41 42 43 44 45 45
4 7 6 4 1 6 8 6 4 5 1 3 4 5 2 5 5 5 6 8 7 4 3 3 4 6 5 6 8 7 7 8 6 5 6 6 7 6 5 6 6 8 8 7 7 7 7 6 5 6 7 8 9 11 14 17 20 23 24 27 29 30 33 36 38 40 41 40 40 40 41 40 39 39 39 40 41 41 42 42 42 43 43 44 43 42
4 6 3 1 1 5 7 3 3 4 2 0 3 3 4 3 6 4 7 6 5 5 6 6 7 6 4 8 9 5 6 6 4 4 4 6 7 4 4 6 6 7 7 6 6 7 7 6 5 5 7 8 10 11 15 18 21 24 26 28 29 30 32 35 37 38 39 39 40 41 42 41 41 42 43 43 43 42 41 41 42 42 42 42 42 41
5 5 4 4 5 5 4 1 3 4 4 3 2 5 2 1 3 3 3 3 5 8 7 8 13 11 6 8 7 5 6 7 4 4 6 7 6 5 6 6 6 6 6 5 5 6 6 6 5 5 7 9 10 11 14 17 20 24 27 29 31 32 34 37 38 39 39 40 41 42 43 44 44 45 46 45 44 42 41 41 42 42 41 42 41 41
2 4 6 7 7 3 2 2 5 5 3 4 4 2 1 2 4 2 2 3 6 9 6 7 13 10 7 9 10 9 10 12 9 6 6 8 8 6 7 8 7 7 7 6 6 6 5 5 5 6 8 9 12 14 15 16 19 22 26 28 32 34 35 36 37 38 40 41 43 43 44 45 45 45 46 44 42 41 42 43 43 42 42 41 41 40
1 3 5 5 4 2 3 0 6 7 3 1 3 2 1 4 5 4 3 2 5 9 8 8 10 7 7 9 12 14 12 11 11 6 7 10 8 6 6 7 8 7 7 7 7 7 6 6 5 6 9 12 14 16 17 18 20 23 25 27 30 33 32 33 35 37 39 41 43 42 41 42 44 45 44 42 40 40 42 43 42 42 42 41 40 40
1 3 5 4 4 2 1 5 7 8 4 2 2 4 4 3 3 4 3 2 4 8 8 9 8 7 5 6 13 16 10 8 9 5 7 11 9 8 6 5 6 6 6 7 6 7 7 7 6 6 9 12 13 16 18 20 22 24 26 29 31 31 32 33 35 38 41 42 43 42 42 43 45 45 43 41 40 41 41 41 41 41 41 40 40 40
1 3 4 4 4 6 9 8 7 8 7 5 5 5 5 5 3 6 7 6 5 7 7 9 9 7 4 6 15 15 7 6 7 6 10 12 10 9 7 6 6 6 6 8 7 7 7 6 6 6 7 10 13 16 18 20 22 25 27 30 31 31 34 37 39 41 44 43 42 44 45 45 45 44 43 42 42 42 42 42 42 41 40 40 40 41
3 2 3 6 7 10 14 11 7 8 5 3 3 4 5 5 4 6 9 7 6 8 8 9 10 6 6 9 15 12 6 6 7 9 12 12 10 10 10 9 8 7 8 8 8 8 6 5 7 7 8 10 12 16 18 20 23 26 29 30 30 33 37 40 41 43 43 41 42 44 44 42 41 41 41 43 43 44 44 44 43 42 41 41 40 40
2 2 3 7 6 6 10 12 9 7 4 3 5 6 7 8 9 10 9 7 7 8 7 8 10 5 4 8 11 11 11 11 10 12 13 11 9 8 9 10 9 9 9 8 8 7 6 5 6 7 7 8 12 15 17 19 23 26 29 30 31 36 40 40 40 40 39 40 43 43 41 40 39 38 39 41 43 45 46 45 43 43 42 41 41 41
3 2 2 5 4 3 5 7 8 7 4 4 7 9 10 11 13 12 9 7 8 9 11 12 10 6 3 6 8 10 14 16 16 16 13 10 9 8 8 8 8 8 9 10 11 13 13 11 9 8 7 9 13 16 18 19 22 26 30 31 33 37 40 40 39 38 38 40 40 39 39 40 39 39 41 43 45 46 46 45 43 43 42 42 42 42
3 2 2 4 5 6 7 6 5 5 3 2 4 9 11 13 14 13 9 9 10 12 14 13 11 9 6 7 10 12 15 18 20 20 17 12 9 8 7 7 9 10 13 16 16 16 15 15 15 15 14 15 18 20 22 22 22 25 28 30 32 36 39 39 38 39 38 38 38 38 39 40 40 42 44 47 48 47 46 44 43 42 42 43 43 43
1 2 5 9 10 10 11 10 8 8 8 9 8 9 10 10 12 11 9 10 12 11 12 13 12 12 9 9 13 16 17 18 20 20 18 13 11 12 13 12 13 13 14 15 15 16 16 16 17 18 18 22 26 26 25 25 26 28 29 31 32 32 34 35 34 36 38 39 40 40 41 42 43 45 48 49 49 46 44 43 42 42 43 43 43 43
2 3 7 13 14 13 14 16 16 15 15 17 17 15 14 13 12 11 11 13 11 10 12 12 12 13 12 12 15 15 14 13 12 14 15 14 14 13 13 14 16 16 15 15 16 17 17 16 16 16 16 20 26 29 30 29 29 30 30 33 33 30 31 31 30 32 36 37 38 39 41 43 45 47 48 47 44 42 41 42 42 43 43 43 43 44
2 4 8 12 13 13 14 16 16 15 16 16 16 17 19 19 18 18 20 21 16 14 15 14 16 18 14 9 9 10 12 11 11 11 12 13 14 14 15 16 16 16 16 16 16 16 16 15 16 15 15 19 24 27 30 31 32 33 33 34 34 32 31 30 29 31 34 33 35 40 42 43 44 45 44 41 40 41 42 42 43 43 43 43 44 44
3 3 5 9 10 10 11 13 13 14 15 16 16 17 19 20 22 24 24 23 22 21 21 20 23 20 9 8 10 11 12 10 9 10 13 15 15 14 14 14 13 13 14 14 14 14 14 14 15 15 15 18 22 25 27 29 31 33 35 37 38 37 35 30 28 32 32 33 38 42 41 39 39 38 37 38 40 41 42 42 41 42 42 43 42 42
2 2 5 7 8 9 10 12 13 12 13 15 15 16 17 19 21 21 20 19 20 22 22 22 22 14 6 10 9 10 12 11 11 13 14 13 12 13 13 13 12 12 12 13 13 14 14 14 15 15 15 18 22 26 28 29 32 33 35 38 40 41 39 33 30 32 32 36 41 42 38 35 34 34 35 38 39 39 40 40 40 41 41 41 40 40
2 3 6 8 8 9 10 13 15 13 12 14 16 17 19 19 17 17 15 14 14 15 14 13 9 5 8 11 10 9 12 14 12 11 11 11 12 13 13 12 12 12 12 13 13 13 14 15 15 15 16 19 24 27 28 30 32 32 35 38 41 42 40 35 32 33 34 38 40 38 35 33 33 33 35 36 37 37 38 38 39 39 40 40 40 40
3 3 4 6 8 9 12 15 14 12 12 13 13 12 12 13 12 11 8 7 9 7 5 2 2 3 6 9 11 11 13 14 11 7 9 11 12 13 13 12 12 12 12 12 12 13 14 13 13 15 18 21 25 27 29 30 29 30 33 36 39 40 38 34 31 32 34 36 35 33 33 32 31 33 34 34 34 34 34 35 37 38 39 39 39 39
6 6 5 5 6 10 15 15 11 10 13 9 2 4 3 2 4 4 3 8 10 7 5 5 4 5 6 7 10 11 10 11 10 4 5 9 11 12 13 12 12 12 12 12 12 12 12 11 13 17 21 25 27 30 32 33 31 33 37 38 39 39 37 34 30 28 30 31 30 29 29 28 29 31 32 31 31 32 33 34 35 36 37 37 37 38
10 9 7 5 5 8 10 9 9 12 10 2 5 5 2 6 11 10 6 6 8 8 8 7 5 6 6 7 8 8 8 10 10 6 2 8 11 12 13 12 13 14 13 13 13 13 12 12 14 18 22 25 28 30 32 33 34 37 40 40 39 38 37 34 30 27 26 27 27 25 24 25 26 27 26 27 28 30 32 33 33 34 34 35 37 39
10 8 5 4 5 6 5 6 10 10 3 4 4 6 3 3 6 6 5 6 6 5 6 5 4 5 6 7 7 7 9 10 8 5 1 8 10 10 11 11 12 13 13 12 13 13 14 16 17 20 24 26 28 29 29 31 34 36 38 38 37 36 37 34 31 29 26 23 23 22 21 22 22 23 23 24 27 28 30 31 32 32 33 33 34 35
9 7 5 5 6 6 7 8 10 9 4 2 1 5 2 1 2 2 1 2 3 2 3 2 3 4 4 6 7 9 10 10 7 2 3 6 9 9 9 10 11 13 13 14 15 17 19 21 22 24 26 27 28 28 29 32 35 35 35 35 35 36 36 33 31 30 28 24 22 20 19 19 20 21 21 23 26 27 28 29 30 31 32 32 32 33
6 6 4 5 5 4 6 6 5 7 5 2 2 4 4 5 5 4 4 2 3 2 1 2 1 4 4 5 7 8 9 10 9 4 2 6 9 9 9 10 10 12 15 17 19 21 22 24 25 25 26 27 28 29 29 32 34 33 32 32 33 34 32 30 30 32 30 27 23 20 18 18 18 20 21 23 25 25 26 27 29 30 32 32 32 32
0 2 2 4 5 4 6 6 5 6 2 3 4 7 6 8 6 3 4 3 4 3 4 4 3 4 3 4 5 5 7 8 9 8 8 10 11 10 10 11 11 13 18 20 20 21 23 26 26 26 26 26 27 29 31 33 32 29 28 29 32 31 28 28 31 32 30 28 24 20 18 16 17 19 20 22 24 24 25 26 27 28 29 30 31 30
4 3 2 4 6 5 6 6 6 5 2 3 3 5 7 7 3 2 6 3 3 3 5 5 4 5 3 4 4 3 4 6 8 11 12 12 12 11 10 11 13 14 17 20 21 23 25 26 25 24 24 25 27 30 32 32 29 27 26 28 29 27 26 29 33 32 29 26 23 20 17 15 16 18 19 20 21 22 23 24 25 26 28 28 28 28
1 2 2 4 5 6 7 6 5 5 3 2 3 7 7 4 1 4 8 2 1 5 4 5 5 6 4 4 3 2 4 6 8 12 14 13 12 11 10 13 16 18 19 21 24 25 25 25 23 23 24 25 27 30 30 29 27 26 26 26 25 26 29 33 34 32 28 25 22 19 16 14 15 16 17 18 19 20 22 23 24 26 27 27 27 27
1 2 2 3 3 3 4 4 5 6 3 2 3 7 3 2 2 6 5 2 3 7 5 6 6 6 5 5 4 4 7 7 8 12 13 13 12 11 11 13 15 18 20 22 24 25 25 24 24 25 26 26 27 28 28 28 27 26 24 22 23 28 33 35 34 32 29 26 22 18 15 13 14 15 16 17 18 19 21 22 24 26 27 27 26 26
2 2 2 3 3 2 3 4 6 7 3 3 5 6 2 1 4 6 4 3 5 6 5 6 6 6 6 6 6 7 8 9 10 11 11 12 12 11 12 13 13 16 19 21 23 24 23 23 24 25 27 29 29 29 28 27 26 25 23 22 25 30 33 35 35 33 29 26 22 19 15 13 13 15 16 17 18 20 21 21 23 25 27 27 26 25
3 2 3 4 3 3 5 6 5 4 3 5 6 5 5 6 6 5 5 6 5 5 5 5 6 7 6 6 7 7 8 9 10 10 10 11 11 11 12 12 13 15 18 21 23 24 23 22 24 26 29 30 29 30 30 27 25 25 24 24 28 32 33 34 35 32 29 27 24 20 17 14 14 15 17 18 19 21 21 22 23 24 25 26 26 24
4 5 5 4 4 5 5 6 6 4 6 9 9 8 10 11 8 6 6 7 6 5 5 5 6 7 6 5 7 7 8 9 10 10 10 10 11 12 12 13 15 17 19 22 24 24 23 23 25 28 31 32 31 29 30 27 25 26 28 28 31 33 32 32 32 31 30 28 25 22 19 17 16 17 18 19 21 23 24 24 25 24 24 25 25 24
4 4 3 2 5 5 4 7 9 10 11 13 11 9 8 8 8 6 5 6 7 6 5 5 6 7 5 5 6 6 8 10 10 10 11 10 11 13 13 14 17 19 20 21 23 23 24 24 26 27 29 33 34 30 29 28 26 26 31 33 32 31 30 29 30 30 30 29 27 24 20 18 18 18 19 21 23 25 26 27 28 26 25 25 25 24
4 4 4 4 6 5 5 7 9 10 13 12 10 9 8 9 9 6 5 7 8 7 5 5 5 6 5 5 6 7 8 10 10 11 11 10 11 13 13 13 15 18 21 23 23 25 25 22 23 23 25 31 36 32 29 31 31 31 34 35 31 28 30 32 31 31 29 29 28 26 22 21 20 20 20 22 24 25 26 27 28 28 27 27 26 24
3 4 5 6 8 7 8 11 9 10 11 10 8 9 9 11 11 8 7 8 6 4 4 4 5 5 5 5 5 6 8 11 11 11 10 10 11 12 13 14 15 18 23 27 27 26 25 22 22 23 24 29 36 36 33 34 36 36 35 34 30 28 31 34 32 31 31 31 29 26 25 24 23 21 22 23 26 27 27 28 30 29 30 33 33 29
2 2 4 5 5 6 8 11 12 11 10 10 12 12 10 10 11 9 6 6 4 4 5 5 4 4 4 6 6 5 9 12 12 10 10 11 12 12 13 15 17 20 25 28 28 26 25 25 26 25 25 31 37 37 36 37 39 38 35 32 30 31 32 33 33 33 34 32 29 27 26 25 24 24 24 24 26 28 30 32 34 34 33 35 36 35
3 6 7 4 3 6 10 12 12 9 6 9 13 11 6 5 6 5 4 4 4 5 5 5 6 5 5 6 6 6 9 12 12 10 10 11 13 14 15 16 19 22 26 27 27 27 27 28 28 27 29 35 37 36 36 37 39 38 35 33 33 33 34 33 31 31 31 30 28 26 25 24 25 25 25 25 25 26 28 30 33 34 33 32 34 35
7 10 10 7 8 11 13 13 9 5 7 11 11 5 1 2 2 3 4 4 3 2 2 4 6 8 8 8 8 7 9 11 12 11 10 12 16 19 20 20 19 21 25 26 25 26 28 30 30 29 31 37 39 37 36 38 41 42 38 34 34 33 33 33 29 27 27 26 25 25 24 24 25 25 24 25 25 24 24 23 26 30 31 30 30 31
Wind_Direction
147 165 167 190 211 218 215 206 215 229 240 251 241 240 245 255 261 253 263 265 245 269 265 253 267 270 266 262 258 264 267 266 271 268 261 258 261 262 260 260 262 261 260 266 273 264 246 246 245 240 234 227 224 223 222 218 215 215 213 211 210 208 204 199 197 196 196 196 196 198 201 205 209 211 213 216 218 219 220 220 219 219 220 219 218 216
151 196 210 213 216 217 220 219 225 241 266 261 243 260 259 248 262 258 259 270 251 233 260 257 272 274 268 267 258 259 262 255 260 267 267 261 256 260 261 263 264 261 264 268 274 267 248 246 246 237 227 217 215 216 216 215 214 214 212 210 209 205 201 200 199 197 197 198 198 198 201 205 207 209 211 213 215 217 218 218 218 219 219 219 218 217
222 229 229 227 229 234 243 235 225 237 242 244 241 262 263 249 273 267 249 263 253 218 268 269 268 271 271 269 256 247 252 248 248 255 263 265 260 261 259 262 265 266 272 270 269 271 252 236 238 228 219 215 215 215 214 214 214 211 210 210 208 204 201 201 200 199 199 200 201 201 202 203 203 207 210 212 214 214 215 216 218 219 220 219 219 217
235 239 231 230 232 239 258 252 223 254 245 225 223 245 261 251 266 264 244 266 266 225 270 281 276 274 266 266 256 241 248 249 249 250 256 263 259 257 254 258 268 270 273 272 271 276 256 220 223 218 214 215 214 214 212 211 210 209 209 209 206 204 202 200 200 200 199 198 198 200 202 201 202 205 208 210 213 213 213 215 217 220 220 219 219 217
245 244 224 223 220 215 238 244 225 259 264 232 216 225 254 247 240 250 265 320 317 278 279 290 292 282 229 239 250 240 247 249 249 252 259 261 255 256 263 267 267 263 265 270 276 278 264 217 216 217 216 215 211 212 212 211 210 209 209 208 205 203 201 199 199 197 195 193 192 192 193 194 197 200 201 203 208 210 212 214 216 218 218 218 218 218
258 246 168 185 215 208 221 239 210 210 252 258 220 209 239 248 248 257 283 336 339 299 298 316 304 296 196 192 236 249 253 251 246 247 250 254 257 264 274 267 259 256 259 264 270 274 272 245 221 221 218 215 213 216 217 216 213 211 209 207 203 201 199 198 197 194 192 191 189 186 183 183 186 190 196 202 206 208 211 214 215 216 216 217 218 217
258 237 195 202 212 195 203 251 221 197 239 274 229 204 228 245 254 260 272 306 281 264 300 75 262 287 278 167 215 241 251 254 249 242 245 254 267 272 263 258 260 263 266 266 266 271 274 255 224 226 220 215 219 224 223 218 214 210 207 204 201 199 198 196 194 193 192 191 190 190 190 190 190 192 200 207 209 211 212 212 214 215 215 216 217 217
211 231 232 226 203 164 189 249 219 181 207 268 235 201 214 230 242 242 233 231 239 274 291 162 161 271 285 229 196 220 239 258 259 253 257 263 265 264 262 263 267 267 266 266 267 271 273 251 222 232 227 223 228 229 223 216 212 209 205 202 199 197 196 194 193 193 193 193 192 194 194 196 197 199 203 207 208 211 211 210 212 214 214 215 216 217
163 199 219 196 171 177 207 232 187 158 198 254 152 160 187 204 217 177 175 212 260 340 287 214 146 256 283 266 190 220 237 253 264 260 263 265 262 265 270 273 270 267 265 260 259 270 279 268 232 235 236 235 234 229 219 214 211 207 203 199 196 195 195 194 193 193 195 196 195 195 196 198 201 203 205 205 205 207 208 208 210 212 213 214 215 216
196 210 189 161 170 210 223 226 168 165 203 234 116 105 68 73 85 113 183 194 64 313 262 196 157 211 283 280 123 49 245 243 260 261 260 263 266 272 274 275 275 274 274 271 271 278 284 279 257 248 246 243 235 225 216 210 206 202 199 196 194 194 194 193 194 193 195 196 197 197 198 199 200 201 203 203 201 203 205 205 207 209 211 213 213 214
244 204 145 167 193 203 199 172 167 182 205 303 77 12 13 16 24 57 247 92 76 282 251 179 178 184 283 287 140 174 235 228 245 261 278 280 281 281 277 273 273 274 280 292 302 296 285 281 276 262 250 243 230 216 208 202 199 196 194 193 192 193 193 193 194 194 195 197 198 200 200 200 200 198 198 197 197 199 201 201 204 207 210 212 213 214
259 213 207 234 207 159 151 133 327 213 177 13 22 15 357 327 358 27 353 56 156 264 250 183 180 172 237 265 56 279 272 244 230 251 288 291 284 279 278 278 280 288 301 312 314 309 303 293 283 267 246 228 210 201 196 194 192 191 191 190 190 191 192 193 194 195 197 198 200 202 202 202 201 199 198 198 197 198 199 200 202 204 207 210 212 213
276 223 230 282 223 163 159 190 323 357 89 124 124 79 349 318 341 351 314 81 204 257 254 181 173 187 243 260 319 289 275 260 238 236 264 278 283 285 292 300 304 311 312 307 302 297 294 289 281 275 261 228 205 198 193 190 187 187 188 188 188 190 192 193 194 197 198 200 202 203 203 204 203 203 203 202 201 201 201 201 200 202 204 206 209 211
287 268 204 112 263 187 152 164 236 266 167 155 156 160 156 192 276 271 262 271 259 268 285 177 172 245 272 274 249 248 262 270 261 254 260 267 282 288 293 299 303 304 302 294 290 288 287 293 291 279 269 249 225 208 195 189 186 185 187 188 190 191 192 193 196 198 200 202 204 204 205 206 205 206 206 206 205 206 205 204 204 206 206 207 209 211
250 291 218 175 244 186 172 197 202 162 158 183 164 143 157 184 222 241 238 258 268 280 310 246 183 223 267 277 242 240 270 295 296 291 279 269 268 270 277 289 298 305 308 301 295 297 298 298 295 285 268 250 234 214 200 192 188 187 188 191 192 192 193 195 197 199 201 204 205 206 207 208 208 209 209 210 211 211 210 209 209 210 210 212 213 213
203 263 243 198 146 154 180 225 187 113 40 242 133 110 201 200 195 236 245 242 258 290 288 241 217 223 244 280 278 269 280 289 299 318 321 309 281 269 296 318 319 319 321 319 311 309 306 297 290 289 280 257 234 214 204 197 192 192 192 193 196 197 197 198 200 202 203 205 206 207 209 209 210 211 211 213 214 214 215 214 213 213 215 215 215 214
226 251 232 104 59 181 195 228 184 160 185 233 112 174 232 170 155 229 265 246 245 263 247 238 258 271 287 289 288 304 309 303 328 331 299 280 279 297 348 338 324 316 314 311 303 297 293 294 293 292 288 270 245 223 211 205 201 199 197 197 199 200 202 203 203 204 205 205 207 209 210 211 211 212 213 214 215 215 216 216 217 217 217 217 216 215
247 269 258 249 268 246 206 209 266 237 162 141 205 217 227 57 130 187 251 250 236 246 241 231 252 272 293 282 291 346 327 299 282 269 261 271 303 347 348 321 303 296 300 312 311 299 289 288 290 282 276 266 254 242 230 220 213 208 206 203 202 203 205 206 206 207 207 207 209 211 212 213 213 214 215 216 216 216 215 216 218 218 218 217 216 215
253 279 274 264 263 271 54 37 294 282 189 185 253 247 138 255 254 216 193 209 233 248 250 221 236 253 255 256 272 275 269 268 262 261 286 297 310 329 327 327 328 322 330 343 334 316 300 284 272 259 256 250 242 238 235 231 225 220 216 211 210 210 210 210 210 209 210 211 212 213 214 215 216 216 218 217 217 216 216 217 218 217 218 217 216 214
267 267 274 286 286 338 40 277 253 269 271 255 301 313 239 228 235 233 208 181 233 251 257 236 227 229 228 244 264 259 246 245 244 249 288 293 294 295 303 324 330 329 330 325 315 309 307 297 283 266 256 250 242 237 232 229 227 225 224 221 218 216 214 214 214 213 214 214 215 216 217 217 218 219 220 219 217 218 218 219 218 218 218 216 215 214
3 272 258 281 313 337 276 217 219 236 237 196 228 245 246 237 251 268 246 199 239 251 253 249 238 225 218 242 258 256 245 231 224 228 278 289 299 300 288 287 297 306 307 301 298 298 299 299 303 295 273 260 254 249 239 232 228 225 226 225 224 221 217 217 217 217 218 218 217 218 218 219 219 219 220 219 219 220 220 220 220 220 219 216 215 214
168 245 236 234 254 256 251 230 195 197 196 180 189 210 227 232 255 278 261 232 233 246 248 255 255 238 204 243 258 256 235 221 231 253 280 291 307 311 302 278 271 278 285 286 286 283 284 290 304 308 283 260 251 249 244 238 232 227 226 226 225 224 222 220 219 220 221 220 219 221 221 221 220 219 219 219 219 220 221 221 221 220 218 217 216 215
184 181 217 229 229 242 257 256 219 201 210 230 218 214 232 230 216 240 250 244 241 249 251 255 261 245 180 223 257 267 250 236 248 265 279 290 299 302 300 291 279 269 266 271 276 275 279 291 305 309 291 265 251 250 248 242 234 230 229 228 225 225 226 225 223 223 223 221 221 223 224 223 222 220 219 218 219 220 220 221 220 219 218 216 216 214
209 151 231 254 256 263 273 278 270 239 223 274 259 232 229 233 232 237 245 252 254 255 260 261 258 245 187 226 260 282 284 277 271 267 273 284 288 283 282 283 281 275 273 280 289 304 324 324 313 308 294 275 262 258 255 247 239 236 235 230 226 229 231 229 228 228 226 224 224 224 223 223 222 221 220 220 220 221 221 220 219 218 217 215 215 214
272 199 217 262 276 285 281 283 283 263 214 223 247 240 235 235 243 254 261 267 264 248 247 258 259 248 250 270 277 285 286 286 285 281 281 285 281 273 270 280 296 310 331 345 351 358 1 356 344 330 314 297 288 284 278 263 247 240 238 233 230 233 235 233 230 230 229 229 228 225 223 222 220 219 220 221 222 222 221 219 217 216 215 213 213 213
283 242 215 259 262 262 265 261 270 275 254 252 250 242 243 240 240 250 259 258 255 242 237 248 257 251 256 280 284 283 285 288 288 288 291 292 298 316 341 359 4 9 14 12 10 10 7 5 1 356 351 343 331 319 305 290 273 261 254 246 241 239 239 236 231 229 229 230 230 228 225 222 219 218 220 221 222 222 220 218 216 214 213 212 211 210
223 250 229 246 253 257 266 268 274 285 284 284 279 260 255 252 245 247 249 249 257 259 247 245 255 260 262 271 273 273 275 279 286 298 314 335 1 16 25 29 27 24 19 13 10 8 6 5 1 358 358 355 350 343 332 318 304 292 281 273 265 255 248 243 236 231 230 228 228 227 225 223 220 220 221 221 221 220 218 217 215 213 212 211 209 208
174 252 247 250 253 255 264 272 276 278 275 273 276 276 272 269 263 258 255 257 266 273 261 253 260 266 262 261 267 276 286 299 322 344 1 18 27 27 28 28 23 19 14 10 8 4 1 358 355 354 354 351 349 347 344 338 327 315 303 293 287 277 266 258 249 241 237 233 230 229 227 225 223 223 223 222 220 217 216 215 214 213 211 209 208 208
162 257 260 257 260 260 264 271 272 273 273 271 273 274 273 272 271 266 263 262 263 264 266 270 271 269 274 291 310 337 352 359 17 28 34 34 26 21 24 24 21 16 10 6 4 360 356 352 349 348 346 346 346 344 342 340 336 333 326 317 310 301 288 276 263 253 247 240 237 235 233 230 226 225 223 220 218 216 214 213 212 211 210 208 207 207
191 255 265 264 275 278 274 275 274 271 271 271 268 266 267 267 265 265 266 268 269 268 269 273 271 270 296 352 359 11 10 7 25 34 33 30 22 19 20 18 18 14 7 3 358 354 352 347 345 343 342 343 344 342 339 336 334 333 331 330 327 319 308 295 275 261 251 243 243 242 239 235 231 226 222 218 216 215 212 211 210 208 207 207 206 205
243 304 324 314 299 286 279 277 274 268 268 272 273 270 267 266 265 267 270 273 273 272 274 276 272 275 344 2 353 7 7 6 22 30 28 25 18 16 15 12 10 7 2 358 352 349 347 344 343 343 342 341 338 338 337 334 333 333 332 333 331 325 318 305 283 267 255 247 248 246 242 239 234 227 222 219 216 214 211 208 207 206 205 203 202 202
309 314 324 313 287 278 281 280 281 285 285 280 277 274 269 266 266 265 264 268 273 278 287 293 291 315 355 347 345 4 8 5 11 22 25 20 15 14 10 4 0 357 356 352 347 345 343 341 341 340 337 336 334 334 333 331 331 332 332 332 328 325 321 309 289 273 263 256 253 248 242 238 233 227 223 219 215 213 209 206 203 202 201 200 199 199
248 265 292 284 279 286 283 282 292 302 294 279 276 281 277 273 276 273 279 318 328 316 308 332 26 359 337 343 351 360 5 359 352 10 28 18 13 10 2 356 352 348 345 342 339 340 336 335 336 333 331 330 329 328 328 328 328 328 329 329 327 326 324 316 298 280 270 264 258 251 244 238 230 226 223 218 214 210 206 203 201 199 199 198 197 196
245 252 259 259 268 280 283 293 305 291 276 271 299 19 26 56 37 23 16 9 9 25 65 87 65 6 345 356 355 348 351 343 323 325 32 20 11 3 352 347 343 339 337 334 333 333 330 328 327 326 326 325 325 327 328 328 330 330 331 331 331 330 329 325 311 290 278 272 266 257 249 239 230 226 223 217 211 206 202 201 200 199 197 195 193 193
256 256 255 250 254 269 283 296 287 268 262 224 82 54 84 113 96 96 90 37 31 51 62 56 36 11 352 348 348 337 328 323 306 286 359 23 13 356 343 339 337 334 331 328 328 327 325 324 323 323 324 323 323 326 328 329 331 333 333 334 334 333 333 330 321 306 291 282 274 265 252 240 232 226 222 215 208 203 200 200 199 197 196 193 193 194
244 256 258 245 253 265 261 248 255 263 250 119 73 24 27 89 85 98 105 65 47 58 63 42 4 358 345 330 336 329 316 311 296 260 36 24 7 348 335 329 326 325 322 322 323 322 322 322 320 321 322 321 323 325 326 329 331 332 332 333 333 334 334 334 330 321 311 298 286 274 257 243 232 225 219 212 206 202 200 199 197 196 194 193 193 194
224 240 255 251 246 247 246 244 255 271 262 165 20 358 7 291 319 311 261 101 97 95 86 72 337 335 334 325 328 325 318 319 309 244 106 21 348 332 321 312 311 314 314 316 317 317 319 320 321 322 323 323 325 326 327 330 332 332 332 333 335 335 335 336 335 331 325 316 303 286 265 248 234 225 218 210 205 203 201 198 197 195 193 191 191 192
202 217 237 260 256 256 272 272 268 273 264 184 252 272 247 244 249 238 236 197 136 145 181 152 273 300 306 316 321 324 331 334 324 305 350 345 331 323 312 303 306 312 314 318 320 319 322 324 324 325 326 326 326 327 330 331 332 333 333 334 336 335 334 337 337 334 331 325 317 301 279 259 241 229 219 211 207 205 202 199 197 195 193 191 191 192
129 221 207 252 267 280 284 280 276 277 253 155 225 244 246 263 258 212 225 212 139 171 203 172 210 259 269 295 309 335 348 336 318 309 320 328 325 320 313 311 316 318 318 319 319 319 322 324 324 324 327 327 325 327 331 332 333 335 334 334 335 334 334 336 336 334 331 327 322 310 292 271 250 235 224 216 211 207 204 201 197 195 194 193 193 193
352 311 264 251 258 265 268 266 272 278 248 150 217 249 259 268 258 241 267 253 134 202 208 178 224 248 237 266 288 344 340 313 302 303 311 317 315 314 316 318 319 319 318 318 318 318 319 320 321 323 325 325 325 327 331 332 333 334 334 332 333 332 332 333 332 331 329 325 322 314 300 281 258 242 230 220 215 208 204 201 197 194 192 192 193 192
311 273 255 238 240 249 257 260 265 266 247 201 241 260 274 301 336 272 270 273 354 284 231 176 227 246 228 256 277 285 275 272 279 291 300 307 308 309 314 314 313 313 313 313 315 317 317 317 318 319 319 321 324 326 329 331 330 329 329 330 329 327 328 329 329 329 327 323 319 313 303 286 264 247 235 225 215 208 204 201 198 195 191 190 191 190
208 254 257 222 216 224 235 250 277 275 228 135 276 277 287 27 293 269 253 200 273 274 222 187 230 241 226 240 248 252 267 272 275 283 293 300 303 306 310 312 311 310 309 310 312 315 317 316 317 318 317 320 323 323 326 328 326 322 323 325 322 321 323 326 327 325 323 320 315 310 301 286 265 247 236 226 215 207 203 200 199 196 191 189 189 188
220 260 266 223 214 242 242 242 266 266 224 76 353 326 359 112 261 279 292 259 240 232 211 214 234 233 229 241 246 254 270 279 278 281 287 293 297 303 305 307 308 306 307 309 309 313 316 315 315 316 315 317 319 320 324 326 322 319 320 318 317 319 321 321 321 319 316 313 309 304 296 281 262 245 233 223 213 206 202 199 197 194 190 188 187 184
240 222 233 235 232 234 235 235 235 238 266 318 326 302 272 266 261 264 282 276 245 214 215 228 235 234 231 241 257 268 274 275 278 284 286 288 295 300 299 301 303 301 303 304 305 309 314 314 313 313 312 313 315 318 321 323 320 317 315 314 317 318 316 314 314 312 307 303 300 295 288 274 256 243 232 221 211 204 200 198 196 193 191 189 186 183
226 195 200 228 236 211 207 239 261 283 293 292 286 267 263 272 268 242 244 263 260 232 212 219 242 248 237 238 258 271 275 276 280 286 287 289 294 295 294 296 297 296 298 299 300 305 311 312 311 310 309 309 311 315 317 319 319 315 310 312 317 315 311 312 313 308 300 296 291 286 279 266 251 239 231 222 212 204 200 197 193 192 192 190 188 187
233 201 169 201 254 254 248 253 262 273 272 266 266 265 260 265 270 250 229 245 254 239 214 215 242 254 251 249 257 263 270 278 285 287 287 290 291 290 291 292 294 296 298 298 299 304 310 311 308 306 306 306 308 312 314 314 313 309 305 309 314 311 311 317 317 308 299 292 287 280 270 258 247 236 228 220 214 209 206 200 195 192 193 192 192 193
250 206 194 233 252 259 263 250 237 243 252 255 261 269 265 263 264 244 220 241 249 238 221 220 238 257 262 254 255 263 272 279 284 285 287 288 286 286 289 290 292 296 296 295 298 304 307 307 303 302 304 303 304 308 311 309 307 303 302 306 308 307 310 315 313 305 298 291 285 278 266 253 245 235 224 216 212 209 208 205 200 196 194 194 193 193
243 179 188 231 238 232 250 261 251 242 253 264 268 267 267 267 264 247 230 242 250 243 233 226 227 247 264 264 265 274 279 279 278 279 283 284 280 280 284 286 289 293 294 294 298 302 305 303 300 300 301 298 299 304 307 305 302 302 301 302 304 306 309 308 304 299 295 289 283 276 264 253 244 234 224 217 211 207 205 205 203 202 202 200 197 194
194 173 191 210 232 247 260 265 263 263 273 275 266 261 258 259 263 258 234 230 251 269 268 262 247 239 254 270 278 282 279 277 277 275 276 279 279 280 281 284 288 289 289 291 294 297 299 299 298 299 297 294 296 302 303 301 299 298 298 299 303 307 306 301 298 295 291 286 281 272 263 253 243 233 226 220 215 213 213 210 208 208 210 210 206 202
169 233 234 211 230 256 256 251 252 262 273 267 267 272 267 244 245 235 211 223 252 262 265 276 279 270 262 262 262 264 270 274 278 280 278 277 280 283 286 289 291 289 287 290 294 295 295 294 294 295 293 292 295 299 299 297 295 293 294 298 302 304 301 296 294 291 286 283 278 270 261 251 243 235 228 222 218 217 220 221 217 215 215 216 214 212
209 231 235 230 237 246 250 251 247 242 254 263 273 292 26 129 171 200 221 245 259 255 269 286 286 286 284 272 256 248 260 273 281 283 281 279 280 283 286 288 288 287 289 294 297 297 296 295 294 293 291 292 295 296 295 293 291 290 292 298 300 299 296 291 288 285 282 281 278 273 263 251 243 237 230 225 222 218 218 221 223 223 222 220 217 216